Starlink 36484

operational
NORAD ID: 67404 Int'l Des: 2026-005 Owner: SPXS Country: US Constellation: starlink
LEOCIRCULAR

About Starlink 36484

Description loading...

Live Position

Loading 3D Globe...

Upcoming Passes

Altitude History

Altitude vs Time

uPlot chart will show altitude changes over time

Two-Line Element Set

1 67404U 26005A 26047.35418368 .00040527 00000-0 97428-3 0 9992
2 67404 43.0003 0.2009 0000183 244.8765 115.2073 15.40638312 5414
Epoch: Feb 16, 2026 • Age: 9 hours

Current Status

Altitude 449.4 km
Velocity 7.64 km/s
Sub-Earth Point -22.92°S, 160.09°E
Launch Date Jan 12, 2026
Age 34 days
Type internet

Technical Details

Classification Payload
Mass 575.00 kg
Dry Mass 530.00 kg
Total Mass 575.00 kg
Length 0.30 m
Diameter 4.10 m
Span 29.00 m
Shape Box + pan
Manufacturer SPXS
Bus Type Starlink V2MO
Phase Status In Orbit
Owner/State SPXS/US

Large Constellations

Loading constellations...